Showing default

QIANFAN-23, 61556

Orbit data source: Space-Track

QIANFAN-23, 61556 is a Chinese payload satellite in LEO that was launched on Tue, 15 Oct 2024 UTC via a CHANG ZHENG 6A launch vehicle from the Taiyaun Space Center, China (TSC). Payload-class satellites include a variety of spacecraft equipped with specific instruments for various scientific and technological missions. These include communications satellites like Starlink; space stations such as the ISS; scientific satellites like the Hubble; Earth observation satellites from companies like Planet Labs, Umbra, and HawkEye 360; GPS; miniature CubeSats for education and research; and military/defense satellites.

Loading next visibility...
Identifier
61556, 2024-185E
Orbit
LEO
Country
Flag of CNCN / PRC
Related business
Manufacturer
GESIH/SECM
Mission
Partially operational Commercial Communications
Bus & Motor
QIANFAN, Unknown motor
Mass
267 kg wet, ~267 kg dry
Launch date (UTC)
2024-10-15 (1 year ago)
Launch vehicle
CHANG ZHENG 6A
Launch site
Taiyaun Space Center, China (TSC)
Object type
Payload
Rocket body
Debris
Shape & HBR
Box + 1 Pan, 5.0 m
Radar Cross Section
13.200 m², Large (>1 m²)

Expand to show TLE details & history
Last TLE update: 9 hours ago

TLE from 9 hours ago
0 QIANFAN-23
1 61556U 24185E   26037.23266184  .00000668  00000-0  32932-3 0  9995
2 61556  88.9757  71.3614 0009461 128.1787 232.0254 14.16362130 77600
Epoch: 2026-02-06T05:35Z
TLE epoch observation values (Epoch: 2026-02-06T05:35:01.982Z)
Latitude
-0.00012°
Longitude
-148.77035°
Altitude
844.935 km
Speed
7.428 km/s
True Right ascension
04h 45m 26s
True Declination
0° 00' 00"
Sunlit
Object was in daylight at epoch
Visualization orbit readout
Latitude
Unknown
Longitude
Unknown
Altitude
Unknown
Speed
Unknown
Apparent Right ascension
Unknown
Apparent Declination
Unknown
Sunlit
N/A
Visualization observer readout
Local Sidereal Time
17:08:03
Azimuth
Unknown
Elevation
Unknown
Doppler factor
Unknown
Orbital elements
Apogee altitude
841.463 km
Perigee altitude
827.815 km
Semi-major axis
7,212.776 km
Eccentricity
0.00095
Inclination
88.9757°
RAAN
71.3614°
Arg. of periapsis
128.1787°
True anomaly
231.94°
Mean anomaly
232.0254°
Eccentric anomaly
231.98269°
Mean motion
3.54315 °/min
Orbital period
101.6 mins
BSTAR
0.00032932
Loading maneuver chart data...
Computing Atmospheric mass density...
Loading historical data...
Loading historical data...
Loading historical data...
Loading historical data...
Loading historical data...
Loading historical data...
Loading historical data...

Documentation

Showing up to 5 results
|